Regional Weather Roundup
Issued by NWS

Home | Current Version | Previous Version | Text Only | Print | Product List | Glossary On
Versions: 1 2 3 4 5 6 7 8 9 10 11 12 13 14 15 16 17 18 19 20 21 22 23 24 25 26 27 28 29 30 31 32 33 34 35 36 37 38 39 40 41 42 43 44 45 46 47 48 49 50
000
ASUS45 KABQ 181801
RWRNM
NEW MEXICO REGIONAL WEATHER ROUNDUP
NATIONAL WEATHER SERVICE ALBUQUERQUE NM
1100 AM MST THU JAN 18 2018

NOTE: "FAIR" MEANS FEW OR NO CLOUDS BELOW 12,000 FEET AGL WITH NO
       SIGNIFICANT WEATHER OR OBSTRUCTIONS TO VISION.

      THIS PRODUCT IS RELEASED AS TWO VERSIONS.  ONE VERSION NEAR
      THE TOP OF THE HOUR CONTAINING PRELIMINARY DATA FROM ALBUQUERQUE
      AND OTHER STATIONS.  A FINAL VERSION WITH ADDITIONAL DATA IS
      ISSUED ABOUT 10 MINUTES AFTER THE HOUR.

NMZ501-503-504-510>518-181900-
NORTHWEST PLATEAU/NORTHCENTRAL MOUNTAINS

CITY           SKY/WX    TMP DP  RH WIND       PRES   REMARKS
FARMINGTON     FAIR      31  17  56 SE6       30.34F WCI  25
6HR MIN TEMP:  12; 6HR MAX TEMP:  32;

LOS ALAMOS     FAIR      35  11  37 NE7       30.32S WCI  29
SANTA FE       FAIR      38   9  30 NW16      30.30F WCI  29
6HR MIN TEMP:  19; 6HR MAX TEMP:  38;

ANGEL FIRE     FAIR      39   2  21 CALM      30.31F

$$
NMZ402-403-502-505>509-181900-
WESTCENTRAL MOUNTAINS/SOUTHWEST MOUNTAINS

CITY           SKY/WX    TMP DP  RH WIND       PRES   REMARKS
GALLUP         FAIR      38  17  42 CALM      30.35S
6HR MIN TEMP:   8; 6HR MAX TEMP:  39;

GRANTS         FAIR      36  16  43 W8G17     30.35F WCI  30
SILVER CITY    FAIR      46  19  34 SW3       30.31F

$$
NMZ407-409-411-412-181900-
SOUTHERN DESERTS

CITY           SKY/WX    TMP DP  RH WIND       PRES   REMARKS
DEMING         FAIR      43  16  33 VRB3      30.32F
6HR MIN TEMP:  16; 6HR MAX TEMP:  44;

LAS CRUCES     FAIR      42  13  31 E5        30.34S
HOLLOMAN AFB   FAIR      42  11  28 CALM      30.35S
ALAMOGORDO     FAIR      39   9  28 NW3       30.34S
T OR C         FAIR      43  15  32 E6        30.32R
6HR MIN TEMP:  20; 6HR MAX TEMP:  43;


$$
NMZ519>523-181900-
CENTRAL VALLEYS/CENTRAL HIGHLANDS

CITY           SKY/WX    TMP DP  RH WIND       PRES   REMARKS
ALBUQUERQUE    PTSUNNY   37  15  40 CALM      30.33F
6HR MIN TEMP:  17; 6HR MAX TEMP:  38;

DOUBLE EAGLE   MOSUNNY   39  18  41 SE3       30.33S
MORIARTY ARPT  FAIR      47  16  29 N8        30.30F
6HR MIN TEMP:   6; 6HR MAX TEMP:  47;

CLINES CORNERS FAIR      44   8  23 NW29G37   30.26S
6HR MIN TEMP:  17; 6HR MAX TEMP:  44;

BELEN          FAIR      38  14  36 NE6       30.34F WCI  34
6HR MIN TEMP:  12; 6HR MAX TEMP:  38;

SOCORRO        FAIR      38  14  37 N15G21    30.34S WCI  29
6HR MIN TEMP:  19; 6HR MAX TEMP:  38;


$$
NMZ524>526-539-540-181900-
SOUTHCENTRAL MOUNTAINS

CITY           SKY/WX    TMP DP  RH WIND       PRES   REMARKS
RUIDOSO        FAIR      48  -2  12 NW10      30.28S

$$
NMZ527>531-181900-
NORTHEAST HIGHLANDS/NORTHEAST PLAINS

CITY           SKY/WX    TMP DP  RH WIND       PRES   REMARKS
LAS VEGAS      FAIR      52   1  12 N5        30.22S
6HR MIN TEMP:  16; 6HR MAX TEMP:  52;

RATON          FAIR      47   3  16 E6        30.20S
6HR MIN TEMP:  10; 6HR MAX TEMP:  47;

CLAYTON        FAIR      58  -9   6 SW12      30.16F
6HR MIN TEMP:  20; 6HR MAX TEMP:  58;


$$
NMZ532>537-181900-
EASTCENTRAL PLAINS

CITY           SKY/WX    TMP DP  RH WIND       PRES   REMARKS
TUCUMCARI      FAIR      46  13  26 S7        30.19F
6HR MIN TEMP:  14; 6HR MAX TEMP:  46;

CANNON AFB     FAIR      38   5  25 W12       30.25R WCI  31
6HR MIN TEMP:  17; 6HR MAX TEMP:  38;

CLOVIS AIRPORT FAIR      41   8  25 W13       30.24S

$$
NMZ028-029-538-181900-
SOUTHEAST PLAINS

CITY           SKY/WX    TMP DP  RH WIND       PRES   REMARKS
ROSWELL        FAIR      35   5  28 E3        30.28F
6HR MIN TEMP:  10; 6HR MAX TEMP:  35;

ARTESIA        FAIR      36   3  25 SE7       30.29F WCI  30
CARLSBAD       FAIR      37   8  30 SE7       30.29F WCI  32
6HR MIN TEMP:  11; 6HR MAX TEMP:  37;

HOBBS          SUNNY     39  10  30 S6        30.29F WCI  35


$$




USA.gov is the U.S. government's official web portal to all federal, state and local government web resources and services.